Welcome to the New NWS' Forecast!
Most changes are behind the scenes, but click here for differences you might notice.
Latest weather observations around

West Memphis, West Memphis Municipal Airport (KAWM)

Using English Units (Switch to International System of Units)
Date/ Time (CDT) Wind (mph) Vis. (mi) Weather Sky Cond. Temp (°F) Rel. Humidity Wind Chill (°F) Heat Index (°F) Pressure Precip. (in)
Air Dwpt 6 hour Altimeter (inHg) Sea level (inHg) 1 hr 3 hr 6 hr
Max Min
Aug 17 03:53 S 13 10 Clear CLR 75 75     100%   77 29.93 29.92      
Aug 17 02:53 S 8 10 Clear CLR 75 74     96%   77 29.95 29.93      
Aug 17 01:53 S 9 10 Clear CLR 74 73     97%   76 29.96 29.94      
Aug 17 00:53 SSW 8 10 Clear CLR 76 74     94%   78 29.99 29.97      
Aug 16 23:53 S 7 10 Clear CLR 78 77     96%   81 29.97 29.95      
Aug 16 22:53 S 9 10 Clear CLR 79 77     94%   83 29.96 29.94      
Aug 16 21:53 SSE 3 10 Clear CLR 78 76     93%   80 29.94 29.92      
Aug 16 20:53 Calm 10 Clear CLR 78 76     93%   80 29.95 29.93      
Aug 16 19:53 S 3 10 Clear CLR 82 78     88%   91 29.94 29.92      
Aug 16 18:53 S 6 10 Clear CLR 86 79     80%   100 29.94 29.93      
Aug 16 17:53 S 6 10 Clear CLR 87 79     77%   101 29.94 29.93      
Aug 16 16:53 S 11 10 Mostly Clear FEW027 88 79     75%   103 29.94 29.93      
Aug 16 15:53 S 9 9 Mostly Clear FEW025 88 79     75%   103 29.95 29.93      
Aug 16 15:28 SSW 11 9 Partly Cloudy SCT025 88 78     73%   102 29.95        
Aug 16 14:53 S 9 9 Mostly Cloudy BKN023 BKN030 86 78     77%   98 29.95 29.94      
Aug 16 14:39 S 11 9 Mostly Cloudy BKN023 BKN034 87 78     75%   100 29.96        
Aug 16 13:53 SSW 7 9 Cloudy FEW016 OVC034 85 78     80%   97 29.97 29.96      
Aug 16 13:29 SSW 6 9 Cloudy FEW015 SCT023 OVC032 84 78     82%   95 29.99        
Aug 16 12:53 SSW 7 9 Cloudy FEW017 SCT024 OVC029 83 78     85%   93 30 29.98      
Aug 16 12:41 S 8 8 Cloudy SCT011 BKN019 OVC026 82 78     88%   91 30        
Aug 16 11:53 S 9 7 Cloudy BKN011 OVC015 80 78     94%   86 30.02 30      
Aug 16 11:48 S 8 7 Cloudy BKN011 BKN015 OVC021 81 79     94%   88 30.01        
Aug 16 10:53 SSW 7 6 Fog/Mist OVC008 80 78     94%   86 30.02 30      
Aug 16 09:53 S 7 7 Cloudy OVC008 79 77     94%   83 30.02 30      
Aug 16 08:53 S 7 6 Fog/Mist OVC006 78 77     96%   81 30.01 29.99      
Aug 16 07:53 S 7 7 Cloudy OVC007 77 77     100%   79 30 29.98      
Aug 16 06:53 S 8 8 Cloudy OVC005 75 75     100%   77 29.99 29.97      
Aug 16 06:45 S 10 8 Mostly Cloudy BKN005 75 75     100%   77 29.98        
Aug 16 06:36 S 8 8 Partly Cloudy SCT005 74 74     100%   76 29.98        
Aug 16 05:53 S 7 9 Clear CLR 74 74     100%   76 29.96 29.95      
Aug 16 04:53 S 6 9 Clear CLR 73 73     100%   75 29.95 29.93      
Aug 16 03:53 SSE 6 8 Clear CLR 74 74     100%   76 29.93 29.92      
Aug 16 02:53 S 6 9 Clear CLR 75 75     100%   77 29.92 29.9      
Aug 16 01:53 S 6 9 Clear CLR 77 76     96%   79 29.9 29.89      
Aug 16 00:53 SSE 3 5 Fog/Mist CLR 75 75     100%   77 29.91 29.89      
Aug 15 23:53 Calm 7 Clear CLR 77 77     100%   79 29.91 29.9      
Aug 15 22:53 Calm 10 Clear CLR 78 77     96%   81 29.91 29.9      
Aug 15 21:53 Calm 10 Clear CLR 79 77     94%   83 29.92 29.91      
Aug 15 20:53 S 5 10 Clear CLR 80 77     90%   86 29.91 29.9      
Aug 15 19:53 Calm 10 Mostly Clear FEW070 80 78     94%   86 29.89 29.88      
Aug 15 18:53 SSW 3 10 Clear CLR 84 76     77%   93 29.88 29.86      
Aug 15 17:53 Calm 10 Clear CLR 85 76     75%   94 29.87 29.85      
Aug 15 16:53 S 6 10 Mostly Clear FEW028 86 75     70%   95 29.86 29.85      
Aug 15 15:53 E 5 10 Clear CLR 84 74     72%   91 29.87 29.86      
Aug 15 15:04 NE 3 10 Mostly Cloudy SCT023 BKN055 85 75     72%   93 29.89        
Aug 15 14:53 NE 6 10 Mostly Cloudy BKN023 BKN050 83 75     77%   90 29.89 29.88      
Aug 15 14:48 ENE 6 10 Mostly Cloudy BKN023 82 75     79%   89 29.9        
Aug 15 13:53 5 10 Partly Cloudy SCT023 84 74     72%   91 29.91 29.9      
Aug 15 13:11 SE 7 10 Mostly Clear FEW016 FEW021 81 74     79%   86 29.93        
Aug 15 12:53 N 6 10 Mostly Cloudy SCT016 BKN021 82 76     82%   89 29.94 29.93     0
Aug 15 12:40 5 10 Cloudy BKN017 OVC021 82 75     79%   89 29.94        
Aug 15 12:29 5 10 Mostly Cloudy BKN014 BKN021 81 75     82%   87 29.94        
Aug 15 11:53 NW 7 10 Clear CLR 80 75     85%   85 29.94 29.93 0    
Aug 15 11:23 3 10 Mostly Cloudy FEW029 BKN041 78 74     87%   80 29.95   0    
Aug 15 11:16 6 10 Mostly Cloudy BKN029 BKN039 78 74     87%   80 29.96   0    
Aug 15 11:03 5 10 Mostly Cloudy FEW017 SCT027 BKN031 79 76     90%   83 29.95   0    
Aug 15 10:53 3 10 Cloudy FEW010 OVC029 78 76     93%   80 29.94 29.93 0    
Aug 15 10:45 3 9 Cloudy SCT015 BKN027 OVC050 78 76     93%   80 29.93   0    
Aug 15 10:19 5 9 Mostly Cloudy SCT014 SCT022 BKN080 79 78     97%   83 29.93   0    
Aug 15 10:03 WSW 3 8 Light Rain FEW009 BKN016 OVC022 78 77     96%   81 29.93   0    
Aug 15 09:58 WSW 7 3 Light Rain and Fog/Mist SCT011 BKN014 OVC031 78 77     96%   81 29.93   0    
Aug 15 09:53 WSW 7 2 Rain and Fog/Mist SCT009 BKN018 OVC033 78 77     96%   81 29.92 29.91 0 0  
Aug 15 09:49 6 2.5 Rain and Fog/Mist BKN011 BKN018 OVC050 79 77     94%   83 29.92   0    
Aug 15 09:42 S 8 9 Cloudy SCT011 BKN019 OVC060 79 77     94%   83 29.92        
Aug 15 09:31 S 8 9 Mostly Cloudy SCT009 SCT035 BKN055 79 77     94%   83 29.91        
Aug 15 09:16 S 7 9 Mostly Cloudy FEW013 SCT046 BKN060 79 77     94%   83 29.9        
Aug 15 08:53 SE 3 8 Partly Cloudy FEW013 SCT039 78 77     96%   81 29.91 29.89      
Aug 15 07:53 SE 3 8 Partly Cloudy FEW080 SCT090 SCT120 76 76     100%   78 29.9 29.89      
Aug 15 05:53 SSE 3 7 Mostly Clear FEW039 73 73     100%   75 29.87 29.86      
Aug 15 04:53 Calm 9 Cloudy FEW035 BKN047 OVC070 74 74     100%   76 29.87 29.86      
Aug 15 03:53 Calm 7 Mostly Cloudy FEW045 BKN065 73 73     100%   75 29.87 29.86      
Aug 15 02:53 Calm 7 Clear CLR 73 73     100%   75 29.87 29.85      
Aug 15 02:09 NNE 3 3 Fog/Mist CLR 72 72     100%   74 29.87        
Aug 15 02:02 Calm 1.75 Fog/Mist CLR 72 72     100%   74 29.87        
Aug 15 01:53 Calm 7 Clear CLR 73 73     100%   75 29.86 29.85      
Aug 15 00:53 Calm 10 Clear CLR 74 74     100%   76 29.87 29.86     0
Aug 14 23:53 S 5 10 Mostly Cloudy BKN120 74 74     100%   76 29.86 29.85      
Aug 14 22:53 SSW 5 10 Mostly Clear FEW120 74 74     100%   76 29.88 29.86 0    
Aug 14 21:53 Calm 10 Partly Cloudy SCT120 74 74     100%   76 29.87 29.85 0 0  
Aug 14 20:53 SW 3 10 Light Rain FEW065 FEW120 75 74     96%   77 29.86 29.85 0    
Aug 14 19:53 SW 3 10 Clear CLR 75 74     96%   77 29.85 29.84      
Aug 14 18:53 SSW 5 10 Clear   78 75     90%   80 29.84 29.83      
Aug 14 18:15 SSW 6 10 Partly Cloudy SCT017 78 75     90%   80 29.84        
Aug 14 17:53 3 10 Mostly Cloudy BKN018 78 75     90%   80 29.84 29.83      
Aug 14 17:35 5 10 Cloudy BKN015 OVC021 79 75     88%   83 29.84        
Aug 14 17:21 3 10 Mostly Cloudy BKN014 BKN019 78 75     90%   80 29.83        
Aug 14 16:53 Calm 10 Mostly Clear FEW009 78 75     90%   80 29.81 29.8      
Aug 14 16:11 W 6 10 Partly Cloudy SCT010 75 74     96%   77 29.83        
Aug 14 16:02 Calm 10 Light Rain BKN011 BKN032 75 74     96%   77 29.83        
Aug 14 15:34 W 6 6 Light Rain and Fog/Mist FEW090 OVC110 73 73     100%   75 29.86        
Aug 14 15:18 7 2 Rain and Fog/Mist BKN100 OVC120 73 73     100%   75 29.87        
Aug 14 15:07 W 9 3 Rain and Fog/Mist FEW010 BKN100 OVC120 73 73     100%   75 29.88   0    
Aug 14 15:00 WSW 8 4 Light Rain and Fog/Mist FEW010 BKN095 OVC110 73 73     100%   75 29.88   0    
Aug 14 14:53 W 10 4 Light Rain and Fog/Mist SCT009 BKN029 OVC110 73 73     100%   75 29.89 29.88      
Aug 14 14:46 W 9 5 Light Rain and Fog/Mist SCT009 BKN022 OVC100 73 73     100%   75 29.89        
Aug 14 14:38 W 9 2 Rain and Fog/Mist SCT009 OVC022 73 73     100%   75 29.89        
Aug 14 14:33 W 8 0.75 Heavy Rain and Fog/Mist FEW007 OVC020 73 73     100%   75 29.89        
Aug 14 14:29 W 8 0.5 Thunderstorms and Heavy Rain and Fog FEW007 OVC015 73 73     100%   75 29.89        
Aug 14 14:15 WSW 10 0.25 Thunderstorms and Heavy Rain and Fog VV008 74 74     100%   76 29.89        
Aug 14 13:56 SSW 11 0.25 Heavy Rain and Fog BKN008 OVC012 76 76     100%   78 29.89        
Aug 14 13:53 6 0.5 Heavy Rain and Fog SCT008 OVC012 76 76     100%   78 29.88 29.87      
Aug 14 13:51 W 6 0.5 Heavy Rain and Fog SCT008 BKN012 OVC039 75 75     100%   77 29.88        
Aug 14 13:48 5 0.75 Heavy Rain and Fog/Mist BKN008 BKN025 OVC039 77 77     100%   79 29.88        
Aug 14 13:45 SW 6 1.5 Heavy Rain and Fog/Mist SCT008 BKN014 OVC065 77 77     100%   79 29.87        
Aug 14 13:42 SSW 7 2 Thunderstorms and Heavy Rain and Fog/Mist SCT007 BKN011 OVC065 77 77     100%   79 29.87        
Aug 14 13:39 SSW 8 4 Thunderstorms and Rain and Fog/Mist BKN011 BKN032 OVC065 77 77     100%   79 29.87        
Aug 14 13:31 S 8 9 Thunderstorms and Rain SCT009 BKN029 OVC065 77 77     100%   79 29.87        
Aug 14 13:24 Calm 2.5 Thunderstorms and Rain and Fog/Mist FEW007 BKN028 OVC080 76 75     97%   78 29.87        
Aug 14 13:21 Calm 1 Thunderstorms and Rain and Fog/Mist SCT007 BKN036 OVC080 75 75     100%   77 29.87        
Aug 14 13:18 WSW 3 0.75 Thunderstorms and Heavy Rain and Fog/Mist SCT009 BKN025 OVC065 75 75     100%   77 29.87        
Aug 14 13:15 SW 6 0.75 Heavy Rain and Fog/Mist BKN009 BKN025 OVC040 75 75     100%   77 29.87        
Aug 14 13:10 SW 10 2.5 Light Rain and Fog/Mist BKN007 BKN016 OVC026 77 76     96%   79 29.87        
Aug 14 13:07 SSW 11 6 Fog/Mist SCT009 BKN016 OVC026 77 76     96%   79 29.86        
Aug 14 12:55 SSW 15 3 Light Rain and Fog/Mist SCT012 BKN021 OVC029 78 78     100%   81 29.86        
Aug 14 12:31 WSW 7 1.75 Clear   81 77     88%   88 29.87   0    
Aug 14 12:23 WSW 8 10 Clear   83 77     82%   92 29.87        
Aug 14 11:53 WSW 5 10 Clear   81 76     85%   87 29.87 29.86      
Aug 14 11:33 SSW 7 10 Mostly Cloudy FEW013 BKN019 BKN049 82 76     82%   89 29.87        
Aug 14 11:06 5 10 Mostly Cloudy BKN014 BKN023 80 76     87%   85 29.88        
Aug 14 10:53 W 3 10 Cloudy SCT011 SCT017 OVC022 82 77     85%   90 29.88 29.86      
Aug 14 09:53 WSW 5 9 Cloudy OVC016 78 76     93%   80 29.87 29.85      
Aug 14 08:53 SW 5 6 Fog/Mist FEW006 OVC016 77 76     96%   79 29.85 29.84      
Aug 14 05:53 S 3 5 Fog/Mist SCT013 OVC024 74 74     100%   76 29.86 29.85 0    
Aug 14 05:21 S 6 3 Light Rain and Fog/Mist BKN012 OVC019 74 74     100%   76 29.86   0    
Aug 14 05:16 S 5 1.75 Light Rain and Fog/Mist BKN014 BKN019 OVC048 74 74     100%   76 29.86   0    
Aug 14 05:11 S 6 2.5 Light Rain and Fog/Mist SCT014 BKN019 OVC048 74 74     100%   76 29.86   0    
Aug 14 04:53 SSE 7 6 Fog/Mist SCT032 OVC049 74 74     100%   76 29.85 29.84 0    
Aug 14 02:53 SE 3 7 Cloudy FEW036 FEW043 OVC060 75 73     94%   77 29.86 29.84      
Aug 14 01:53 S 5 7 Cloudy BKN035 OVC044 74 73     97%   76 29.87 29.86      
Aug 13 23:53 SE 7 7 Cloudy SCT030 SCT050 OVC060 75 74     96%   77 29.9 29.88      
Aug 13 20:53 ESE 6 6 Fog/Mist BKN080 76 74     94%   78 29.91 29.89      
Aug 13 18:53 SE 5 6 Fog/Mist FEW013 OVC110 77 75     94%   79 29.92 29.9     0
Aug 13 17:53 ESE 3 6 Fog/Mist FEW031 BKN085 OVC110 78 75     90%   80 29.92 29.9 0    
Aug 13 15:53 Calm 8 Light Rain SCT045 BKN060 OVC110 78 74     87%   80 29.95 29.93 0 0  
Aug 13 14:53 E 3 10 Cloudy FEW041 BKN095 OVC120 79 72     79%   82 29.95 29.93      
Aug 13 13:53 NE 5 10 Partly Cloudy SCT110 79 71     77%   82 29.95 29.94      
Aug 13 12:53 E 3 10 Partly Cloudy SCT110 79 70     74%   82 29.97 29.96      
Aug 13 11:53 SSE 5 10 Mostly Clear FEW075 FEW100 78 69     74%   79 29.99 29.98      
Aug 13 04:53 Calm 10 Partly Cloudy SCT120 69 68     96%     29.98 29.96      
Aug 13 00:53 ENE 7 10 Clear CLR 71 66     84%   72 29.97 29.96      
Aug 12 23:53 NE 5 10 Clear CLR 72 66     82%   73 29.99 29.98      
Aug 12 21:53 Calm 10 Clear CLR 72 66     82%   73 30 29.99      
Aug 12 19:53 N 6 10 Clear CLR 76 63     64%   76 29.97 29.96      
Aug 12 17:53 N 10 10 Clear CLR 83 69     63%   87 29.97 29.96      
Aug 12 16:53 N 13 10 Mostly Clear FEW031 84 69     61%   88 29.97 29.96      
Aug 12 15:53 N 9 10 Partly Cloudy SCT030 86 72     63%   92 29.98 29.96      
Aug 12 13:53 NNE 10 8 Partly Cloudy SCT015 82 73     74%   87 30.01 30      
Aug 12 12:00 NNW 9 8 Partly Cloudy FEW014 SCT024 80 75     85%   85 30.02        
Aug 12 11:53 N 9 7 Mostly Cloudy FEW014 BKN024 80 75     85%   85 30.02 30      
Aug 12 09:23 N 5 8 Cloudy OVC005 76 75     97%   78 30        
Aug 12 08:16 NW 3 7 Cloudy SCT002 BKN009 OVC020 74 74     100%   76 30        
Aug 12 02:53 Calm 8 Clear CLR 73 73     100%   75 29.95 29.94      
Aug 12 02:32 Calm 10 Partly Cloudy SCT024 74 74     100%   76 29.95        
Aug 12 02:11 SSW 3 7 Mostly Cloudy BKN024 BKN095 73 73     100%   75 29.95        
Aug 12 01:53 Calm 6 Mostly Cloudy BKN095 73 73     100%   75 29.95 29.94      
Aug 11 23:53 S 3 9 Mostly Cloudy SCT032 BKN060 74 74     100%   76 29.97 29.95      
Notice The following observation data may not be complete
Aug 11 23:13   10 Cloudy OVC029          %              
Aug 11 21:36 Calm 10 Cloudy SCT027 OVC110 75 75     100%   77 29.98        
Aug 11 21:28 Calm 10 Cloudy BKN027 OVC110 75 74     96%   77 29.98        
Aug 11 20:53 Calm 10 Mostly Cloudy FEW027 BKN034 BKN110 75 75     100%   77 29.98 29.96      
Aug 11 15:53 S 9 10 Partly Cloudy SCT004 75 75     100%   77 29.98 29.97 0 0  
Aug 11 12:16 S 6 10 Mostly Cloudy SCT023 BKN031 85 77     77%   95 30.03        
Aug 11 11:32 S 7 10 Mostly Cloudy BKN023 BKN027 85 77     77%   95 30.03        
Aug 11 08:53 S 5 10 Clear CLR 80 77     90%   86 30.03 30.02      
Aug 11 07:53 3 7 Clear CLR 76 76     100%   78 30.04 30.03      
Aug 11 06:53 Calm 5 Fog/Mist CLR 73 73     100%   75 30.03 30.01     0
Aug 11 06:42 S 3 5 Fog/Mist FEW003 FEW017 73 73     100%   75 30.03        
Aug 11 06:35 SSW 5 2.5 Fog/Mist FEW002 SCT019 73 73     100%   75 30.03        
Aug 11 06:30 SSW 5 0.5 Fog FEW002 SCT021 73 73     100%   75 30.03        
Aug 11 06:24 SSW 5 0.25 Fog SCT001 BKN021 72 72     100%   74 30.03        
Aug 11 06:10 S 5 0.75 Fog/Mist SCT001 OVC021 72 72     100%   74 30.03        
Aug 11 06:06 S 5 1.5 Fog/Mist BKN001 OVC021 71 71     100%   73 30.03        
Aug 11 06:00 S 3 3 Fog/Mist OVC001 71 71     100%   73 30.03        
Aug 11 05:53 S 3 1.25 Fog/Mist OVC001 71 71     100%   73 30.03 30.01      
Aug 11 05:48 S 3 1.25 Fog/Mist OVC002 72 72     100%   73 30.03        
Aug 11 05:40 S 3 2 Fog/Mist OVC002 72 72     100%   74 30.02        
Aug 11 05:15 Calm 4 Fog/Mist OVC002 72 72     100%   74 30.02        
Aug 11 04:58 Calm 1.25 Fog/Mist BKN002 72 72     100%   74 30.01        
Aug 11 04:53 S 3 6 Fog/Mist BKN002 71 71     100%   73 30.01 30      
Aug 11 04:45 S 3 4 Fog/Mist BKN003 71 71     100%   73 30.01        
Aug 11 04:34 S 3 7 Partly Cloudy SCT003 72 72     100%   74 30.01        
Aug 11 03:53 SSW 3 8 Clear CLR 74 74     100%   76 30.02 30   0  
Aug 11 02:53 Calm 7 Clear CLR 73 73     100%   75 30.01 30      
Aug 11 01:53 S 5 10 Clear CLR 73 73     100%   75 30 29.98 0    
Aug 11 00:53 Calm 10 Light Rain CLR 74 74     100%   76 30.03 30.01 0   0
Aug 10 23:53 Calm 10 Clear CLR 75 74     96%   77 30.03 30.02      
Aug 10 22:53 Calm 10 Clear CLR 76 74     94%   78 30.05 30.03      
Aug 10 21:53 SSW 5 10 Clear CLR 77 75     94%   79 30.05 30.03      
Aug 10 20:53 S 5 10 Clear CLR 76 72     88%   77 30.03 30.01      
Aug 10 19:53 Calm 9 Clear CLR 80 71     74%   84 30.02 30.01      
Aug 10 18:53 Calm 10 Clear CLR 84 67     57%   87 30.02 30.01      
Aug 10 17:53 NNE 6 10 Clear CLR 89 68     50%   93 30.03 30.01      
Aug 10 16:53 N 8 10 Clear CLR 90 69     50%   95 30.02 30.01      
Aug 10 15:53 NW 6 10 Clear CLR 90 69     50%   95 30.03 30.01      
Aug 10 14:53 6 10 Clear CLR 90 71     54%   96 30.04 30.03      
Aug 10 13:53 5 10 Clear CLR 89 69     52%   94 30.06 30.05      
Aug 10 12:53 NW 7 10 Clear CLR 88 70     55%   93 30.09 30.07      
Aug 10 11:53 NW 5 10 Clear CLR 87 69     55%   91 30.1 30.09      
Aug 10 10:53 5 10 Clear CLR 84 72     67%   90 30.12 30.1      
Aug 10 09:53 5 9 Clear CLR 82 74     77%   88 30.12 30.1      
Aug 10 08:53 Calm 9 Clear CLR 80 72     76%   84 30.11 30.09      
Aug 10 07:53 Calm 8 Clear CLR 75 70     84%   76 30.1 30.09      
Aug 10 06:53 Calm 6 Fog/Mist CLR 68 68     100%     30.09 30.08      
Aug 10 05:53 Calm 6 Fog/Mist CLR 68 68     100%     30.08 30.06      
Aug 10 04:53 Calm 7 Clear CLR 69 69     100%     30.05 30.04      
Aug 10 03:53 Calm 7 Clear CLR 69 69     100%     30.05 30.04      
Aug 10 02:53 Calm 7 Clear CLR 70 69     97%     30.06 30.04      
Aug 10 01:53 Calm 9 Clear CLR 70 69     97%     30.06 30.04      
Aug 10 00:53 Calm 9 Clear CLR 71 69     93%   72 30.07 30.06      
Aug 09 23:53 Calm 10 Clear CLR 72 70     93%   73 30.08 30.06      
Aug 09 22:53 Calm 10 Clear CLR 73 70     90%   74 30.08 30.06      
Aug 09 21:53 ENE 3 10 Clear CLR 76 69     79%   77 30.07 30.05      
Aug 09 20:53 NNE 3 10 Clear CLR 77 70     79%   78 30.05 30.04      
Aug 09 19:53 N 3 10 Clear CLR 79 70     74%   82 30.05 30.04      
Aug 09 18:53 N 6 10 Clear CLR 84 69     61%   88 30.04 30.03      
Aug 09 17:53 N 9 10 Clear CLR 86 66     51%   88 30.04 30.02      
Aug 09 16:53 N 7 10 Clear CLR 87 67     51%   90 30.04 30.02      
Aug 09 15:53 7 10 Clear CLR 88 67     50%   91 30.04 30.02      
Aug 09 13:53 3 10 Clear CLR 87 65     48%   89 30.06 30.05      
Aug 09 12:53 3 10 Clear CLR 86 65     50%   88 30.08 30.06      
Aug 09 11:53 ENE 5 10 Clear CLR 85 65     51%   87 30.09 30.08      
Aug 09 10:53 NE 5 10 Clear CLR 82 68     63%   85 30.1 30.08      
Aug 09 09:53 NE 5 10 Clear CLR 79 68     69%   80 30.1 30.09      
Aug 09 08:53 ENE 6 9 Cloudy OVC090 74 68     82%   75 30.1 30.08      
Aug 09 07:53 NE 6 8 Cloudy OVC085 71 68     90%   72 30.09 30.08      
Aug 09 05:53 NE 3 8 Clear CLR 69 67     93%     30.07 30.05      
Aug 09 04:53 NE 5 7 Clear CLR 69 67     93%     30.06 30.05      
Aug 09 03:53 NE 5 9 Clear   70 68     93%     30.06 30.04      
Aug 09 02:53 NE 5 10 Mostly Cloudy BKN100 72 68     87%   73 30.06 30.04      
Aug 09 01:53 ENE 5 10 Mostly Clear FEW110 71 68     90%   72 30.06 30.04      
Aug 09 00:53 ENE 6 10 Clear CLR 72 68     87%   73 30.06 30.05      
Aug 08 23:53 ENE 6 10 Clear CLR 73 68     84%   74 30.06 30.04      
Aug 08 22:53 ENE 6 10 Clear CLR 74 69     85%   75 30.06 30.04      
Aug 08 21:53 NE 7 10 Clear CLR 75 69     82%   76 30.05 30.04      
Aug 08 20:53 NE 7 8 Clear CLR 77 70     79%   78 30.03 30.02      
Aug 08 19:53 NNE 8 10 Clear CLR 79 70     74%   82 30.02 30.01      
Aug 08 18:53 NE 10 10 Clear CLR 82 69     65%   85 30.01 30      
Aug 08 17:53 NE 15 10 Clear CLR 84 69     61%   88 30 29.99      
Aug 08 16:53 NNE 15 10 Clear CLR 85 69     59%   89 30.01 29.99      
Aug 08 15:53 NNE 11 10 Mostly Clear FEW037 FEW047 86 70     59%   91 30.02 30      
Aug 08 14:53 NNE 14 10 Mostly Clear FEW041 86 70     59%   91 30.03 30.01      
Aug 08 11:53 ENE 10 9 Partly Cloudy FEW027 SCT040 83 71     67%   88 30.06 30.05      
Aug 08 11:27 ENE 9 9 Mostly Cloudy SCT025 BKN046 81 71     72%   85 30.07        
Aug 08 11:20 ENE 9 9 Mostly Cloudy SCT023 BKN029 BKN044 80 71     74%   84 30.07        
Aug 08 10:53 NE 8 9 Clear   81 71     72%   85 30.07 30.06      
Aug 08 09:53 NE 10 8 Mostly Clear FEW016 78 71     79%   79 30.06 30.05      
Aug 08 08:53 ENE 7 8 Mostly Clear FEW012 76 71     85%   77 30.05 30.04      
Aug 08 07:53 NE 6 6 Fog/Mist FEW007 73 71     94%   74 30.04 30.03      
Aug 08 07:51 NE 7 5 Fog/Mist FEW007 73 72     94%   75 30.04        
Aug 08 06:53 NNE 5 4 Fog/Mist CLR 70 70     100%     30.03 30.01      
Aug 08 05:53 NNE 7 6 Fog/Mist OVC041 71 70     96%   72 30.02 30      
Aug 08 04:53 NE 8 7 Cloudy OVC041 72 70     93%   73 30.01 30      
Aug 08 03:53 NNE 7 6 Fog/Mist FEW030 OVC038 71 70     96%   72 30.01 29.99      
Aug 08 03:42 NNE 7 6 Fog/Mist SCT028 OVC039 71 70     96%   72 30.01        
Aug 08 03:14 N 5 6 Fog/Mist BKN024 BKN043 OVC065 71 70     96%   72 30.01        
Aug 08 02:53 NNE 5 6 Fog/Mist SCT065 BKN110 71 69     93%   72 30 29.99      
Aug 08 01:53 N 3 6 Fog/Mist OVC110 71 70     96%   72 30.01 30      
Aug 08 00:53 NNE 3 6 Fog/Mist FEW110 70 70     100%     30.02 30.01     0
Aug 07 23:53 NE 6 7 Partly Cloudy SCT120 72 70     93%   73 30.02 30      
Aug 07 22:53 ENE 7 7 Mostly Cloudy BKN120 72 70     93%   73 30.01 30      
Aug 07 21:53 ENE 7 6 Fog/Mist OVC110 72 70     93%   73 30.01 30   0  
Aug 07 20:53 ENE 8 7 Mostly Cloudy BKN120 73 70     90%   74 29.99 29.98      
Aug 07 19:53 NNE 8 9 Clear CLR 73 70     90%   74 29.98 29.96 0    
Aug 07 18:53 NNE 10 10 Clear CLR 74 70     87%   75 29.97 29.96      
Aug 07 18:28 NNE 10 10 Partly Cloudy SCT014 SCT050 75 70     84%   76 29.97        
Aug 07 18:07 N 13 10 Mostly Cloudy BKN014 75 71     88%   76 29.97        
Aug 07 17:53 N 9 9 Mostly Cloudy SCT014 BKN050 75 71     88%   76 29.97 29.96      
Aug 07 16:53 N 11 8 Cloudy SCT016 OVC049 76 72     88%   77 29.97 29.96      
Aug 07 16:44 N 11 7 Cloudy SCT016 SCT032 OVC049 77 71     82%   78 29.97        
Aug 07 15:53 N 10 8 Cloudy SCT017 OVC024 78 72     82%   79 29.97 29.96      
Aug 07 15:38 N 8 9 Mostly Cloudy BKN018 BKN022 78 72     82%   79 29.97        
Aug 07 15:23 N 7 9 Partly Cloudy FEW021 SCT028 SCT050 79 73     82%   82 29.96        
Aug 07 14:53 N 8 9 Cloudy SCT017 OVC025 79 72     79%   82 29.96 29.95      
Aug 07 13:53 N 5 10 Mostly Cloudy BKN019 80 72     76%   84 29.96 29.95      
Aug 07 12:53 N 8 10 Mostly Cloudy BKN018 80 73     79%   84 29.97 29.95      
Aug 07 12:45 N 8 10 Mostly Cloudy BKN016 79 72     79%   82 29.97        
Aug 07 12:35 3 10 Mostly Cloudy BKN014 79 72     79%   82 29.98        
Aug 07 12:10 N 8 10 Cloudy OVC015 78 72     82%   79 29.98        
Aug 07 11:53 NNE 6 10 Cloudy OVC013 77 72     84%   78 29.99 29.97      
Aug 07 10:53 N 6 10 Cloudy OVC010 75 72     90%   76 29.99 29.97      
Aug 07 09:53 N 8 9 Mostly Cloudy BKN011 77 73     88%   79 29.96 29.95      
Aug 07 09:50 N 8 9 Partly Cloudy SCT011 79 73     84%   82 29.96        
Aug 07 09:25 N 7 8 Cloudy OVC011 76 73     91%   77 29.95        
Aug 07 08:53 N 3 6 Fog/Mist OVC009 75 73     94%   77 29.96 29.94      
Aug 07 08:03 Calm 9 Mostly Cloudy BKN008 BKN015 74 73     97%   76 29.95        
Aug 07 07:53 W 3 10 Mostly Cloudy SCT008 BKN015 74 73     97%   76 29.95 29.93      
Aug 07 07:28 Calm 9 Cloudy SCT007 OVC013 73 73     100%   75 29.93        
Aug 07 06:53 Calm 9 Cloudy OVC007 73 73     100%   75 29.92 29.9      
Aug 07 06:26 Calm 8 Cloudy OVC009 72 72     100%   74 29.92        
Aug 07 06:06 Calm 8 Mostly Cloudy BKN010 72 72     100%   74 29.92        
Aug 07 05:53 WSW 3 9 Mostly Clear FEW011 72 72     100%   74 29.91 29.9      
Aug 07 05:38 3 9 Partly Cloudy SCT011 SCT080 72 72     100%   74 29.91        
Aug 07 05:30 WSW 3 9 Mostly Cloudy FEW005 BKN011 72 72     100%   74 29.91        
Aug 07 05:05 SSW 6 9 Partly Cloudy SCT005 72 72     100%   74 29.9        
Aug 07 04:53 SSW 5 10 Partly Cloudy SCT065 72 72     100%   74 29.9 29.89      
Aug 07 03:53 5 10 Cloudy OVC075 74 73     97%   76 29.9 29.89      
Aug 07 02:53 WSW 6 10 Cloudy OVC070 74 73     97%   76 29.9 29.89      
Aug 07 01:53 SW 5 10 Mostly Cloudy BKN070 BKN095 74 73     97%   76 29.91 29.89      
Aug 07 00:53 SW 5 10 Cloudy OVC070 75 73     94%   77 29.91 29.89     0
Aug 06 23:53 WSW 6 10 Cloudy OVC070 75 73     94%   77 29.9 29.88      
Aug 06 22:53 SW 5 10 Clear CLR 75 73     94%   77 29.9 29.88      
Aug 06 21:53 SSW 5 10 Mostly Cloudy BKN032 76 73     91%   77 29.9 29.88   0  
Aug 06 20:53 SSW 5 10 Partly Cloudy SCT038 77 73     88%   79 29.88 29.86 0    
Aug 06 19:53 SSW 6 10 Mostly Clear FEW046 79 74     85%   83 29.86 29.85      
Aug 06 18:53 SSW 6 10 Mostly Clear FEW024 81 75     82%   87 29.85 29.84     0
Aug 06 17:53 S 9 10 Mostly Cloudy BKN090 BKN110 79 76     90%   83 29.85 29.83 0    
Aug 06 16:53 S 9 10 Mostly Clear FEW080 79 75     88%   83 29.87 29.85      
Aug 06 15:53 SSW 8 9 Partly Cloudy FEW015 SCT110 79 76     90%   83 29.89 29.87 0 0  
Aug 06 14:53 SSW 7 8 Light Rain FEW070 BKN110 81 76     85%   87 29.89 29.87 0    
Aug 06 13:53 S 13 10 Mostly Cloudy SCT023 BKN032 BKN043 83 76     79%   91 29.89 29.88      
Aug 06 12:53 S 16 10 Clear CLR 83 75     77%   90 29.9 29.89      
Aug 06 11:53 S 15 10 Partly Cloudy SCT019 SCT100 82 75     79%   89 29.92 29.91      
Aug 06 10:53 S 10 10 Mostly Clear FEW015 81 75     82%   87 29.93 29.92      
Aug 06 09:53 S 8 10 Clear CLR 80 74     82%   85 29.94 29.92      
Aug 06 08:53 SE 10 10 Clear CLR 77 72     84%   78 29.93 29.92      
Aug 06 07:53 SE 7 10 Clear CLR 75 70     84%   76 29.94 29.92      
Aug 06 06:53 SSE 6 10 Mostly Clear FEW042 72 69     91%   73 29.93 29.92      
Aug 06 05:53 SSE 6 10 Clear CLR 70 67     90%     29.93 29.91      
Aug 06 04:53 SSE 7 10 Clear CLR 72 65     79%   73 29.91 29.9      
Aug 06 03:53 SSE 8 10 Mostly Cloudy BKN044 72 64     76%   72 29.92 29.9      
Aug 06 02:53 SE 7 10 Mostly Clear FEW049 73 62     68%   73 29.92 29.91      
Aug 06 01:53 SE 6 10 Clear CLR 70 64     81%     29.95 29.93      
Aug 06 00:53 SE 5 10 Clear CLR 70 64     81%     29.95 29.93      
Aug 05 23:53 SE 6 10 Clear CLR 74 63     69%   74 29.95 29.93      
Aug 05 22:53 ESE 6 10 Clear CLR 76 62     62%   76 29.97 29.96      
Aug 05 21:53 ESE 6 10 Clear CLR 76 63     64%   76 29.96 29.95      
Aug 05 20:53 E 7 10 Clear CLR 77 63     62%   77 29.96 29.95      
Aug 05 19:53 ENE 8 10 Clear CLR 78 64     62%   79 29.98 29.97      
Aug 05 18:53 NE 6 10 Clear CLR 81 64     56%   83 29.99 29.98      
Aug 05 17:53 N 7 10 Clear CLR 83 63     51%   84 30 29.99      
Aug 05 16:53 5 10 Mostly Cloudy BKN049 86 60     42%   86 30.02 30.01      
Aug 05 15:53 ESE 5 10 Clear CLR 85 60     43%   85 30.03 30.01      
Aug 05 14:53 SE 7 10 Clear CLR 84 59     43%   84 30.03 30.02      
Aug 05 13:53 ESE 5 10 Clear CLR 84 59     43%   84 30.05 30.04      
Aug 05 12:53 Calm 10 Clear CLR 82 57     43%   82 30.07 30.06      
Aug 05 11:53 SE 10 10 Clear CLR 81 60     49%   82 30.08 30.07      
Aug 05 10:53 SSE 9 10 Clear CLR 78 59     52%   78 30.09 30.08      
Aug 05 09:53 ESE 9 10 Clear CLR 76 58     54%   76 30.1 30.08      
Aug 05 08:53 ESE 10 10 Clear CLR 73 58     59%   73 30.1 30.08      
Aug 05 07:53 ESE 10 10 Cloudy OVC065 70 57     63%     30.1 30.09      
Aug 05 06:53 E 8 10 Cloudy OVC065 69 58     68%     30.1 30.09      
Aug 05 05:53 E 8 10 Cloudy OVC065 68 58     70%     30.09 30.08      
Aug 05 04:53 E 7 10 Mostly Cloudy BKN060 67 58     73%     30.07 30.06      
Aug 05 03:53 E 6 10 Clear CLR 66 59     78%     30.06 30.05      
Aug 05 02:53 NNE 3 10 Clear CLR 66 62     87%     30.06 30.05      
Aug 05 01:53 E 5 10 Clear CLR 69 61     75%     30.05 30.04      
Aug 05 00:53 E 5 10 Clear CLR 69 63     81%     30.05 30.03      
Aug 04 23:53 Calm 10 Clear CLR 70 66     87%     30.05 30.03      
Aug 04 22:53 NNE 5 10 Clear CLR 70 66     87%     30.05 30.03      
Aug 04 21:53 NNE 3 10 Clear CLR 73 67     81%   74 30.04 30.03      
Aug 04 20:53 NNE 5 10 Clear CLR 74 68     82%   75 30.03 30.01      
Aug 04 19:53 N 6 10 Clear CLR 76 68     76%   77 30.02 30.01      
Aug 04 18:53 N 10 10 Clear CLR 80 68     67%   83 30.01 30      
Aug 04 17:53 N 7 10 Clear CLR 82 69     65%   85 30.01 29.99      
Aug 04 16:53 N 9 10 Clear CLR 83 69     63%   87 30.01 29.99      
Aug 04 15:53 N 8 10 Mostly Cloudy BKN034 81 71     72%   85 30.01 30      
Aug 04 14:53 NNE 8 10 Partly Cloudy FEW027 SCT033 82 71     69%   86 30.02 30.01      
Aug 04 13:53 NNE 7 10 Partly Cloudy SCT026 82 71     69%   86 30.03 30.02      
Aug 04 12:53 N 7 10 Partly Cloudy SCT022 SCT090 81 72     74%   85 30.04 30.03      
Aug 04 12:28 N 8 10 Partly Cloudy SCT024 82 71     69%   86 30.05        
Aug 04 11:53 N 6 10 Mostly Cloudy BKN020 81 72     74%   85 30.05 30.03      
Aug 04 11:39 6 10 Mostly Cloudy BKN018 80 72     76%   84 30.04        
Aug 04 11:05 NNE 8 10 Partly Cloudy SCT016 79 72     79%   82 30.04        
Aug 04 10:53 N 7 10 Mostly Cloudy BKN016 79 71     77%   82 30.04 30.03      
Aug 04 10:25 6 10 Cloudy BKN016 OVC095 78 72     82%   79 30.04        
Aug 04 09:53 N 8 10 Mostly Cloudy FEW013 BKN100 77 72     84%   78 30.04 30.03      
Aug 04 08:53 NNW 6 10 Clear CLR 76 72     88%   77 30.03 30.02      
Aug 04 07:53 Calm 7 Mostly Clear FEW060 73 72     96%   75 30.02 30.01      
Aug 04 07:40 Calm 7 Mostly Cloudy FEW036 SCT050 BKN065 72 72     100%   74 30.02        
Aug 04 07:12 Calm 6 Fog/Mist SCT035 BKN045 BKN070 71 71     100%   73 30        
Aug 04 06:53 S 3 7 Thunderstorms FEW028 BKN034 BKN075 71 71     100%   73 30 29.98 0   0
Aug 04 06:49 S 3 7 Thunderstorms FEW028 BKN034 72 72     100%   73 29.99   0    
Aug 04 06:29 3 3 Thunderstorms and Rain and Fog/Mist BKN025 OVC035 73 71     94%   74 29.99   0    
Aug 04 06:23 3 1 Thunderstorms and Rain and Fog/Mist FEW013 BKN025 OVC037 72 71     97%   73 30   0    
Aug 04 06:16 Calm 2 Thunderstorms and Rain and Fog/Mist FEW013 BKN025 OVC075 72 71     97%   73 30   0    
Aug 04 05:53 Calm 10 Thunderstorms FEW029 BKN034 OVC080 73 70     90%   74 29.98 29.96      
Aug 04 05:42 Calm 10 Thunderstorms BKN036 BKN046 71 70     96%   72 29.98        
Aug 04 04:53 Calm 9 Partly Cloudy FEW044 SCT055 70 70     100%     29.98 29.96      
Jun 11 15:53 SSW 15 10 Clear CLR 89 65     45%   91 30.01 30      
Jun 08 23:53 Calm 10 Clear CLR 62 59     90%     29.93 29.92      
Jun 08 22:53 Calm 10 Clear CLR 64 60     87%     29.92 29.91      
Jun 08 18:53 ENE 7 10 Clear CLR 77 51     40%   76 29.9 29.89      
Jun 08 11:53 NNE 11 10 Partly Cloudy SCT050 74 57     56%   74 30 29.99      
Jun 07 14:53 NE 15 10 Clear CLR 82 53     37%   81 29.92 29.91      
Jun 07 10:53 NE 10 10 Clear CLR 78 58     50%   78 29.96 29.94      
Jun 07 08:53 NNE 11 10 Clear CLR 72 60     66%   72 29.96 29.94      
Notice The following observation data may not be complete
Jun 06 07:01   1 Fog/Mist VV002          %              
Jun 06 05:53 NE 5 0.25 Fog VV002 71 71     100%   73 29.79 29.78      
Jun 06 05:30 NE 3 0.75 Fog/Mist VV002 71 71     100%   73 29.79        
Jun 05 13:53 S 7 10 Cloudy BKN023 BKN031 OVC060 79 71     77%   82 29.76 29.75